Regional Weather Roundup
Issued by NWS

Home | Current Version | Previous Version | Text Only | Print | Product List | Glossary On
Versions: 1 2 3 4 5 6 7 8 9 10 11 12 13 14 15 16 17 18 19 20 21 22 23 24 25 26 27 28 29 30 31 32 33 34 35 36 37 38 39 40 41 42 43 44 45 46 47 48 49 50
000
ASUS45 KBOI 291610
RWRID
WEATHER ROUNDUP FOR IDAHO
NATIONAL WEATHER SERVICE BOISE ID
1000 AM MDT SUN MAR 29 2015

NOTE: "FAIR" INDICATES FEW OR NO CLOUDS BELOW 12000 FEET
WITH NO SIGNIFICANT WEATHER AND/OR OBSTRUCTIONS TO VISIBILITY

IDZ012-014-291700-
SOUTHWEST IDAHO


CITY           SKY/WX    TMP DP  RH WIND       PRES   REMARKS
BOISE          MOSUNNY   47  30  51 CALM      30.32F
CALDWELL       MOSUNNY   41  27  56 CALM      30.35S
$$

IDZ016-017-291700-
SOUTHCENTRAL IDAHO


CITY           SKY/WX    TMP DP  RH WIND       PRES   REMARKS
BURLEY         SUNNY     41  25  53 CALM      30.32F
JEROME         SUNNY     46  24  42 SE6       30.32F
TWIN FALLS     SUNNY     49  24  37 CALM      30.32F
$$

IDZ019>023-291700-
SOUTHEAST IDAHO


CITY           SKY/WX    TMP DP  RH WIND       PRES   REMARKS
IDAHO FALLS    PTSUNNY   42  23  46 N5        30.35S
POCATELLO      SUNNY     42  24  49 SW5       30.34F
REXBURG        PTSUNNY   38  23  55 N5        30.35F WCI  34
$$

IDZ006-010-011-018-031-032-291700-
CENTRAL IDAHO MOUNTAINS


CITY           SKY/WX    TMP DP  RH WIND       PRES   REMARKS
MCCALL         PTSUNNY   35  29  78 CALM      30.31S
HAILEY         MOSUNNY   41  19  42 NW13      30.34F
STANLEY          N/A     31  23  72 VRB3      30.36S
SALMON         MOSUNNY   36  23  60 CALM      30.36F
CHALLIS        SUNNY     38  21  50 CALM      30.34F
$$

IDZ002-004-006-007-026-291700-
NORTHERN IDAHO


CITY           SKY/WX    TMP DP  RH WIND       PRES   REMARKS
LEWISTON       CLOUDY    47  39  74 E8        30.29F
LOWELL           N/A     45  37  73 CALM      30.37F
COEUR D`ALENE  CLOUDY    45  36  70 S8        30.27F
MULLAN PASS    CLOUDY    32  29  88 CALM      30.24F
$$


USA.gov is the U.S. government's official web portal to all federal, state and local government web resources and services.